Location: Newark
(41.7772°N, 74.7403°W)
Time: 13:31:09
(UTC+00:00)

Transit 4A - Pass Details

Date: 02 June 2020
Orbit: 866 x 978 km, 66.8° (Epoch: 06 July)

Event Time Altitude Azimuth Distance (km) Brightness Sun altitude
Exits shadow 05:55:23 62° 185° (S) 980 7.7 -24.6°
Maximum altitude 05:56:22 78° 117° (ESE) 896 7.7 -24.5°
Drops below altitude 10° 06:02:16 10° 33° (NNE) 2,558 11.2 -24.2°
Sets 06:04:48 0° 32° (NNE) 3,516 12.2 -24.1°
